This is the latest recevied weather packets stored in our database for station/object N1JOV-7. If no packets are shown the sender has not sent any weather packets the latest 10 day(s).
| Time | Temp. | Humidity | Pressure | Rain* | Wind** | Luminosity | Snow |
|---|---|---|---|---|---|---|---|
| 1777636862 | 7.78° C | 99% | 1008.1 hPa | 0 mm | - | - | - |
| 1777636262 | 7.22° C | 99% | 1008.2 hPa | 0 mm | - | - | - |
| 1777635661 | 7.22° C | 99% | 1008.2 hPa | 0 mm | - | - | - |
| 1777635061 | 6.67° C | 99% | 1008.3 hPa | 0 mm | - | - | - |
| 1777634461 | 6.67° C | 99% | 1008.3 hPa | 0 mm | - | - | - |
| 1777633862 | 6.67° C | 99% | 1008.2 hPa | 0 mm | - | - | - |
| 1777633262 | 6.11° C | 99% | 1008.1 hPa | 0 mm | - | - | - |
| 1777632662 | 6.11° C | 99% | 1008 hPa | 0 mm | - | - | - |
| 1777632062 | 6.11° C | 99% | 1008.1 hPa | 0 mm | - | - | - |
| 1777631461 | 5.56° C | 99% | 1007.9 hPa | 0 mm | - | - | - |
| 1777630862 | 5.56° C | 99% | 1007.7 hPa | 0 mm | - | - | - |
| 1777630263 | 5.56° C | 99% | 1007.7 hPa | 0 mm | - | - | - |
| 1777629668 | 5.56° C | 99% | 1007.5 hPa | 0 mm | - | - | - |
| 1777629061 | 5.56° C | 99% | 1007.3 hPa | 0 mm | - | - | - |
| 1777628461 | 5.56° C | 99% | 1007.2 hPa | 0 mm | - | - | - |
| 1777627861 | 6.11° C | 99% | 1007.1 hPa | 0 mm | - | - | - |
| 1777627262 | 6.11° C | 99% | 1006.8 hPa | 0 mm | - | - | - |
| 1777626662 | 6.11° C | 99% | 1006.9 hPa | 0 mm | - | - | - |
| 1777626062 | 6.11° C | 99% | 1006.7 hPa | 0 mm | - | - | - |
| 1777625462 | 6.11° C | 99% | 1006.8 hPa | 0 mm | - | - | - |
| 1777624862 | 6.67° C | 99% | 1006.7 hPa | 0 mm | - | - | - |
| 1777624261 | 6.67° C | 99% | 1006.6 hPa | 0 mm | - | - | - |
| 1777623661 | 6.67° C | 99% | 1006.5 hPa | 0 mm | - | - | - |
| 1777623061 | 6.67° C | 99% | 1006.4 hPa | 0 mm | - | - | - |
| 1777622462 | 6.67° C | 99% | 1006.3 hPa | 0 mm | - | - | - |
* Rain latest hour (hover to see other rain measurements)
** Current wind speed in m/s (hover to see current wind gust speed)